| time (UTC) | temp F | wind direction | speed knots | gust knots | rain 1hr in | rain 24hr in | rain mn in | humidity % | barometer mb |
| 20260505041509 | 66 | 284 | 0.0 | 3.5 | 0.00 | 0.00 | 0.00 | 51 | 1002.1 |
| 20260505040008 | 67 | 284 | 0.0 | 2.6 | 0.00 | 0.00 | 0.00 | 50 | 1002.0 |
| 20260505034507 | 67 | 284 | 1.7 | 6.1 | 0.00 | 0.00 | 0.00 | 49 | 1002.0 |
| 20260505033007 | 68 | 284 | 1.7 | 6.1 | 0.00 | 0.00 | 0.00 | 46 | 1002.1 |
| 20260505031506 | 69 | 284 | 3.5 | 7.8 | 0.00 | 0.00 | 0.00 | 44 | 1001.9 |
| 20260505030005 | 71 | 284 | 6.1 | 10.4 | 0.00 | 0.00 | 0.00 | 42 | 1001.7 |
| 20260505024504 | 69 | 288 | 2.6 | 7.0 | 0.00 | 0.00 | 0.00 | 42 | 1001.4 |
| 20260505023004 | 69 | 288 | 2.6 | 6.1 | 0.00 | 0.00 | 0.00 | 43 | 1001.3 |
| 20260505021504 | 70 | 288 | 2.6 | 7.0 | 0.00 | 0.00 | 0.00 | 43 | 1001.4 |
| 20260505020003 | 71 | 287 | 4.3 | 8.7 | 0.00 | 0.00 | 0.00 | 42 | 1001.5 |
| 20260505014503 | 73 | 284 | 4.3 | 8.7 | 0.00 | 0.00 | 0.00 | 40 | 1001.1 |
| 20260505013001 | 74 | 252 | 5.2 | 10.4 | 0.00 | 0.00 | 0.00 | 36 | 1000.7 |
| 20260505011601 | 75 | 281 | 4.3 | 12.2 | 0.00 | 0.00 | 0.00 | 34 | 1000.4 |
| 20260505010103 | 77 | 277 | 4.3 | 8.7 | 0.00 | 0.00 | 0.00 | 30 | 1000.7 |
| 20260505004557 | 79 | 271 | 1.7 | 9.6 | 0.00 | 0.00 | 0.00 | 28 | 1000.9 |
| 20260505003101 | 80 | 233 | 2.6 | 7.0 | 0.00 | 0.00 | 0.00 | 26 | 1001.3 |
| 20260505001558 | 81 | 209 | 0.9 | 7.0 | 0.00 | 0.00 | 0.00 | 25 | 1001.1 |
| 20260505000058 | 82 | 120 | 1.7 | 5.2 | 0.00 | 0.00 | 0.00 | 24 | 1000.9 |
| 20260504234552 | 83 | 114 | 2.6 | 7.0 | 0.00 | 0.00 | 0.00 | 23 | 1001.1 |
| 20260504233054 | 83 | 121 | 3.5 | 10.4 | 0.00 | 0.00 | 0.00 | 21 | 1001.3 |
| 20260504231552 | 84 | 279 | 0.9 | 3.5 | 0.00 | 0.00 | 0.00 | 20 | 1001.2 |
| 20260504230051 | 85 | 279 | 0.9 | 4.3 | 0.00 | 0.00 | 0.00 | 20 | 1001.1 |
| 20260504224550 | 85 | 279 | 0.0 | 4.3 | 0.00 | 0.00 | 0.00 | 21 | 1001.1 |
| 20260504223101 | 86 | 279 | 0.9 | 2.6 | 0.00 | 0.00 | 0.00 | 18 | 1001.2 |
| 20260504221548 | 85 | 279 | 1.7 | 7.8 | 0.00 | 0.00 | 0.00 | 20 | 1001.4 |
| 20260504220047 | 84 | 285 | 4.3 | 7.0 | 0.00 | 0.00 | 0.00 | 21 | 1001.3 |
| 20260504214547 | 85 | 284 | 1.7 | 9.6 | 0.00 | 0.00 | 0.00 | 20 | 1001.3 |
| 20260504213046 | 87 | 288 | 4.3 | 9.6 | 0.00 | 0.00 | 0.00 | 17 | 1001.5 |
| 20260504211620 | 88 | 284 | 5.2 | 11.3 | 0.00 | 0.00 | 0.00 | 17 | 1001.5 |
| 20260504210046 | 89 | 277 | 4.3 | 10.4 | 0.00 | 0.00 | 0.00 | 16 | 1001.8 |
| 20260504204542 | 89 | 283 | 0.9 | 7.0 | 0.00 | 0.00 | 0.00 | 16 | 1001.9 |
| 20260504203039 | 90 | 288 | 2.6 | 8.7 | 0.00 | 0.00 | 0.00 | 16 | 1002.0 |
| 20260504201538 | 89 | 283 | 2.6 | 11.3 | 0.00 | 0.00 | 0.00 | 18 | 1002.4 |
| 20260504200035 | 89 | 284 | 0.9 | 6.1 | 0.00 | 0.00 | 0.00 | 18 | 1002.7 |
| 20260504194534 | 89 | 284 | 2.6 | 7.8 | 0.00 | 0.00 | 0.00 | 18 | 1002.9 |
| 20260504193035 | 90 | 275 | 1.7 | 9.6 | 0.00 | 0.00 | 0.00 | 18 | 1003.0 |
| 20260504191534 | 88 | 277 | 1.7 | 10.4 | 0.00 | 0.00 | 0.00 | 20 | 1003.3 |
| 20260504190027 | 88 | 298 | 1.7 | 11.3 | 0.00 | 0.00 | 0.00 | 19 | 1003.7 |
| 20260504184536 | 88 | 293 | 1.7 | 8.7 | 0.00 | 0.00 | 0.00 | 20 | 1003.8 |
| 20260504183023 | 87 | 243 | 0.9 | 6.1 | 0.00 | 0.00 | 0.00 | 20 | 1004.0 |
| 20260504181522 | 88 | 213 | 0.0 | 5.2 | 0.00 | 0.00 | 0.00 | 19 | 1004.1 |
| 20260504180021 | 88 | 210 | 0.9 | 4.3 | 0.00 | 0.00 | 0.00 | 17 | 1004.3 |
| 20260504174518 | 88 | 208 | 0.9 | 5.2 | 0.00 | 0.00 | 0.00 | 13 | 1004.5 |
| 20260504173016 | 89 | 207 | 0.9 | 2.6 | 0.00 | 0.00 | 0.00 | 13 | 1004.7 |
| 20260504171514 | 88 | 207 | 0.9 | 4.3 | 0.00 | 0.00 | 0.00 | 15 | 1004.6 |
| 20260504081537 | 53 | 360 | 0.0 | 1.7 | 0.00 | 0.00 | 0.00 | 48 | 1006.4 |
| 20260504050107 | 56 | 360 | 0.0 | 2.6 | 0.00 | 0.00 | 0.00 | 42 | 1007.5 |
| 20260504044606 | 59 | 360 | 0.9 | 2.6 | 0.00 | 0.00 | 0.00 | 38 | 1007.7 |
| 20260504043004 | 63 | 360 | 0.9 | 3.5 | 0.00 | 0.00 | 0.00 | 33 | 1007.8 |